Location: Madrid
(40.4000°N, 3.6830°W)
Time: 08:42:58
(UTC+02:00)

ISS - Pass Details

Date: 24 July 2017
Orbit: 400 x 408 km, 51.6° (Epoch: 21 July)

Event Time Altitude Azimuth Distance (km) Brightness Sun altitude
Rises 05:46:21 0° 304° (NW) 2,315 -0.1 -13.2°
Reaches altitude 10° 05:48:26 10° 300° (WNW) 1,454 -1.2 -12.9°
Maximum altitude 05:51:39 60° 220° (SW) 466 -3.9 -12.4°
Drops below altitude 10° 05:54:51 10° 140° (SE) 1,449 -1.0 -12.0°
Sets 05:56:57 0° 136° (SE) 2,306 0.1 -11.7°
